Helicity
64 71 82 91 96 98 106 109 105 102 98 91 84 75 65 44 40 56 62 30 109 61 41 38 34 31 32 25 24 16 13 7 6
80 93 98 108 114 113 104 99 99 101 100 91 83 80 74 48 48 68 57 96 89 64 43 39 37 34 32 25 18 16 14 12 9
87 96 101 100 99 97 94 90 88 88 89 86 80 72 69 61 59 74 68 130 83 56 52 52 45 38 42 39 28 22 17 20 14
84 87 94 94 86 80 75 70 69 66 62 67 65 59 48 52 80 65 123 128 107 85 82 85 73 57 47 49 52 47 29 25 21
86 87 87 76 69 67 58 52 48 43 42 49 51 39 22 30 54 58 108 106 92 88 82 94 96 104 104 85 68 62 60 44 30
71 86 68 68 56 54 52 48 40 29 7 34 31 22 50 49 56 64 95 83 74 71 69 65 67 76 85 96 110 108 94 82 65
56 73 65 65 46 41 41 41 25 29 54 43 35 42 48 48 53 85 82 66 61 64 64 63 74 85 91 96 103 105 107 111 124
65 65 59 45 44 22 42 35 47 51 53 46 36 47 47 46 57 92 94 94 88 103 123 117 102 80 67 65 68 74 83 91 103
57 56 40 35 28 17 36 41 35 13 30 24 17 18 33 46 54 89 108 113 117 114 101 87 87 80 80 84 92 97 89 85 83
44 49 44 35 31 35 33 -8 -8 10 22 21 30 34 46 56 60 81 91 102 104 105 103 106 97 96 94 101 103 101 97 89 85
36 41 46 41 43 40 35 43 36 30 34 33 38 43 45 60 68 82 74 87 96 103 109 123 128 139 133 118 115 112 104 100 96
36 34 38 55 58 51 49 46 42 40 42 42 39 45 55 57 64 76 81 57 92 107 121 114 109 118 125 113 110 109 112 109 121
31 34 47 48 51 56 52 51 50 41 48 48 53 48 53 69 81 79 82 86 69 76 92 99 100 104 113 110 108 96 93 102 121
38 42 29 27 30 43 48 47 49 50 48 38 43 49 59 73 75 87 86 87 85 80 76 66 79 93 96 99 100 99 99 103 107
45 38 24 13 11 26 39 43 37 36 45 41 40 43 46 52 51 57 51 61 58 63 63 62 64 75 85 97 109 110 108 117 128
50 43 31 20 12 25 29 36 37 41 45 24 45 37 39 32 42 44 47 57 54 63 69 68 76 67 61 69 94 100 106 115 129
58 53 44 35 26 21 31 41 37 24 46 26 7 21 30 42 33 59 57 56 61 47 52 56 54 63 66 86 67 91 101 108 114
68 55 54 45 38 30 40 36 37 44 34 46 37 41 86 67 66 63 49 51 54 51 69 56 61 60 63 66 70 93 98 104 110
66 58 52 48 49 38 37 44 47 52 47 55 48 59 76 83 82 81 50 67 64 71 78 74 86 76 76 80 70 80 98 111 120
57 46 44 48 52 45 46 49 51 56 59 57 63 69 75 78 105 98 81 89 71 90 87 82 95 87 91 87 86 89 84 97 108
Wind_Speed
47 48 48 49 48 47 47 48 49 49 48 47 47 47 47 46 39 37 37 38 34 41 43 44 45 44 39 33 34 37 39 41 40
48 48 49 50 50 50 50 50 50 49 49 48 48 49 49 45 41 42 41 42 42 46 46 46 47 45 43 40 38 38 39 40 41
47 48 49 50 51 51 51 51 51 50 50 49 49 48 48 45 40 42 41 46 48 49 49 50 50 49 47 46 45 44 44 43 42
46 47 49 50 50 50 52 52 52 52 51 50 50 48 44 38 41 41 40 46 47 45 46 46 48 48 48 51 51 51 48 46 43
46 49 50 49 48 50 52 53 53 52 49 49 50 47 39 31 40 37 40 46 47 47 46 45 47 48 48 48 48 48 50 50 51
44 48 48 49 47 48 51 52 51 50 43 41 46 39 37 42 40 40 47 50 51 49 48 47 47 47 48 49 49 49 49 50 50
43 42 44 41 45 38 47 48 47 47 49 43 41 41 45 43 40 39 50 52 51 49 49 49 48 46 47 49 50 50 50 49 48
45 44 44 42 41 29 51 51 50 50 48 48 50 48 46 45 40 41 47 47 43 41 42 44 48 51 52 53 54 54 53 54 54
44 44 42 41 38 33 41 49 51 51 50 51 50 48 46 42 36 38 44 44 44 44 46 47 47 48 48 49 48 50 53 54 55
45 45 44 42 42 43 43 48 48 51 51 50 48 47 44 41 37 35 40 43 44 44 44 45 46 47 47 47 47 48 50 52 55
47 47 46 45 45 46 46 51 51 49 48 49 45 42 39 39 38 37 36 40 42 44 45 46 46 46 48 48 49 52 53 54 55
46 48 48 49 48 48 50 51 51 49 49 48 42 40 39 37 37 38 40 34 40 43 45 45 46 48 49 49 50 51 53 53 54
45 49 50 51 50 50 51 51 51 49 50 48 44 40 36 36 37 38 39 40 40 38 43 44 45 47 48 49 50 51 53 53 54
47 47 50 51 51 50 51 52 51 53 53 51 44 41 39 37 36 37 38 39 40 42 40 43 44 46 48 50 52 53 54 54 54
45 45 49 50 50 50 50 52 51 49 53 53 46 41 36 34 34 34 34 37 40 40 43 43 41 45 49 52 54 55 56 56 55
44 45 46 50 50 49 49 50 53 53 55 51 54 40 34 35 34 34 37 39 41 43 43 44 46 47 49 48 54 55 56 57 57
42 43 46 48 52 51 50 50 52 52 51 52 52 51 42 35 35 38 41 41 42 43 44 46 47 48 49 49 52 53 55 55 55
40 42 45 49 51 53 52 51 51 52 52 48 48 51 49 61 40 41 41 43 44 46 46 47 47 48 49 49 49 52 55 56 56
41 43 46 49 51 53 53 50 50 49 52 51 41 43 47 53 57 43 44 46 50 52 48 50 48 47 49 49 49 51 55 56 57
42 45 47 48 49 50 50 52 49 47 49 49 50 48 46 46 50 62 57 56 52 49 53 55 49 50 47 48 49 51 55 58 59
Wind_Direction
11 7 3 358 354 349 346 343 341 339 339 338 338 337 336 334 339 339 339 339 337 333 328 325 322 321 326 328 329 328 327 326 326
12 7 2 357 350 345 342 340 340 339 339 339 339 337 335 336 336 332 331 332 330 325 323 321 320 320 319 320 320 321 322 323 323
13 8 2 355 349 344 340 338 336 336 337 338 339 341 340 340 342 335 332 328 325 322 320 318 316 315 315 314 314 313 312 315 316
13 9 2 357 352 345 338 334 333 333 333 334 335 337 342 349 340 336 337 331 329 330 327 325 322 319 315 311 309 308 309 310 311
16 9 4 359 354 346 338 333 332 332 335 336 335 339 347 352 340 341 337 331 326 325 326 325 323 319 319 318 315 313 310 307 304
17 12 9 5 1 351 340 337 337 338 344 349 346 352 351 341 340 337 326 320 315 319 321 324 323 322 320 317 316 316 314 312 309
19 18 18 20 15 12 355 348 346 345 341 347 350 345 335 337 341 341 322 313 309 313 315 314 318 321 319 315 314 314 313 313 315
18 19 23 25 26 46 340 334 339 341 344 334 320 329 332 328 340 339 330 325 333 336 330 324 317 310 307 306 304 303 303 302 302
17 19 23 25 29 36 15 351 340 317 323 311 304 303 321 337 353 353 340 335 332 329 325 323 322 321 317 313 313 311 306 304 303
13 13 17 22 18 15 12 300 299 314 320 316 325 323 332 342 352 356 349 337 328 327 328 328 326 321 319 319 318 316 313 310 305
7 5 7 10 9 4 2 346 339 342 342 335 340 343 348 349 350 349 354 341 332 328 326 328 326 324 319 319 320 316 314 312 311
3 357 357 356 357 354 348 345 341 342 342 341 348 351 349 350 348 345 339 350 341 336 333 331 329 326 323 322 321 322 321 320 318
2 350 348 347 347 346 344 344 344 345 344 343 345 348 351 349 346 343 338 337 336 341 337 335 333 330 328 326 324 324 323 322 320
355 351 342 341 340 341 340 340 341 338 338 340 345 345 344 344 345 342 340 338 336 334 336 335 334 331 329 326 324 323 322 323 320
350 350 340 338 338 338 340 338 341 343 340 340 341 345 346 347 345 343 342 339 336 336 334 334 335 333 328 325 322 321 321 320 320
345 345 342 333 333 337 340 342 337 339 341 342 338 343 349 345 343 342 338 335 334 333 333 332 331 329 328 327 324 322 321 320 318
342 342 337 333 328 329 334 338 337 337 343 340 339 339 342 346 342 336 334 331 331 330 329 328 328 327 325 325 324 323 323 322 321
340 338 334 329 325 323 327 331 335 335 337 342 341 336 334 331 343 336 333 330 329 327 328 327 326 325 324 324 323 323 322 321 320
337 335 330 326 324 321 323 329 331 334 334 337 341 337 333 331 328 334 331 328 325 324 324 324 323 323 322 321 321 321 321 320 319
336 332 330 327 325 325 326 326 330 332 332 332 332 331 330 328 324 322 324 322 324 323 322 320 319 319 319 318 318 318 318 318 317